Dewpoint
25 23 21 23 23 23 22 21 20 22 23 21 21 20 19 17 13 13 13 17 42 48 49 51 52 51 50 48 48 45 44 43 43 41 40 38 37 36 36 37 38 38 38 37
23 21 22 24 24 23 23 22 21 22 21 20 16 11 12 12 11 12 12 13 23 46 49 50 50 49 49 48 47 44 43 42 41 41 40 38 36 35 35 36 37 38 36 36
21 20 23 22 19 20 21 20 18 15 16 13 10 7 7 11 13 13 14 15 16 26 43 48 48 47 47 47 46 43 42 42 42 40 38 36 34 33 33 34 34 35 36 36
20 21 19 16 15 14 11 15 15 12 10 8 10 7 9 8 9 11 12 14 15 19 41 47 47 46 46 46 45 43 42 42 41 39 36 35 34 31 31 32 34 34 35 35
15 15 14 14 14 14 13 13 12 12 12 11 9 9 8 9 9 10 12 13 12 14 33 43 45 46 46 46 45 43 43 40 39 37 36 34 32 30 31 31 32 32 33 33
18 20 18 17 17 17 16 15 14 14 13 8 8 8 7 8 10 11 12 13 13 15 28 42 44 45 44 45 44 44 41 40 38 36 35 33 30 29 30 30 30 31 31 31
17 16 18 16 9 12 16 14 8 6 9 6 8 7 8 9 11 13 18 17 17 22 34 41 42 43 43 44 44 44 42 41 39 36 34 32 30 28 29 29 29 29 29 29
10 7 9 17 13 12 12 8 5 3 5 5 6 6 10 14 20 32 34 39 40 40 41 41 42 42 43 44 44 43 42 40 38 35 34 32 29 28 29 29 29 29 28 28
18 13 21 21 21 19 16 13 12 10 11 10 10 11 13 14 15 27 33 38 40 40 40 40 41 41 43 44 44 43 42 39 38 35 34 32 31 29 29 29 29 28 28 27
29 23 26 25 27 23 20 18 14 15 12 13 14 12 12 16 27 33 36 38 41 41 40 40 41 42 43 44 43 43 43 40 38 36 34 32 31 30 29 28 27 27 27 27
27 29 23 26 22 20 21 20 19 18 16 16 15 18 22 26 29 34 37 39 40 42 43 42 42 42 43 44 42 42 41 40 38 36 35 32 30 30 29 27 27 27 27 27
24 23 20 20 24 26 25 23 22 19 17 18 16 18 22 22 25 34 38 38 39 40 41 42 44 43 43 43 44 43 42 40 38 36 33 31 30 29 28 27 27 27 27 27
28 25 20 17 15 21 23 24 22 20 19 21 19 20 30 36 37 38 37 36 33 38 41 41 42 42 42 43 41 39 36 34 33 31 31 30 29 29 28 27 28 27 27 27
28 26 23 17 18 22 22 23 22 20 17 15 16 17 21 24 27 32 33 32 34 36 40 41 42 42 41 41 39 38 35 33 31 31 30 29 28 27 27 27 27 27 26 26
23 19 20 21 21 19 20 18 19 18 19 18 18 19 20 25 28 25 27 27 35 38 39 40 41 42 42 41 40 39 36 32 31 29 28 28 27 27 27 27 27 27 26 25
25 18 19 19 19 19 19 19 19 17 17 19 23 26 27 26 25 26 25 23 30 35 36 37 38 40 43 42 41 38 35 33 32 31 28 27 26 26 26 26 26 26 25 24
19 19 17 13 15 15 15 15 17 15 21 21 21 24 26 24 24 23 22 24 31 32 33 32 35 36 40 42 42 40 37 34 30 29 27 26 26 25 26 26 26 26 25 26
21 21 19 15 16 8 9 17 22 23 22 25 27 26 26 26 26 34 37 35 33 31 37 40 41 39 39 39 39 37 34 32 30 28 27 26 25 25 26 26 26 26 26 26
24 24 18 14 11 14 16 23 27 25 24 26 25 27 27 34 35 32 36 37 36 37 39 40 39 39 40 38 39 35 33 31 30 30 27 26 25 25 26 26 26 27 26 26
14 20 20 18 13 12 25 29 30 32 19 32 35 34 33 34 27 27 33 36 35 37 39 39 39 39 40 39 36 34 32 31 30 29 28 27 27 26 26 27 27 27 26 25
8 16 12 16 15 18 28 26 32 22 24 34 34 35 36 31 29 30 34 35 36 37 39 41 40 39 40 37 34 32 32 31 30 30 29 28 28 27 28 27 27 26 25 24
8 14 13 13 13 13 23 25 23 29 32 35 33 33 32 33 33 33 34 36 36 36 37 39 38 39 38 35 33 32 31 32 31 30 29 29 28 28 28 27 27 25 24 25
11 17 11 17 14 17 23 29 32 34 35 33 34 32 32 31 32 33 33 34 35 36 36 38 38 38 37 35 34 33 33 31 30 30 29 30 31 30 29 27 25 24 24 24
13 18 16 17 20 26 28 30 34 30 28 29 33 32 32 31 31 32 33 33 34 35 35 37 38 38 37 36 35 33 31 31 30 29 30 31 30 29 29 28 26 25 24 23
16 17 18 20 23 28 27 28 29 30 29 31 31 28 27 30 31 29 29 30 32 34 35 36 37 37 37 36 36 34 32 31 29 30 30 30 30 29 28 27 26 25 25 24
18 19 22 21 27 30 29 29 31 31 33 35 35 33 32 29 28 29 30 31 31 31 35 36 36 37 35 33 32 32 31 30 29 28 29 29 29 29 28 27 27 28 28 27
Wind_Speed
1 7 24 20 18 10 7 11 17 24 17 12 24 32 28 24 26 24 22 19 22 26 27 22 24 26 25 22 23 25 24 22 23 19 17 12 14 13 11 10 12 13 15 16
4 20 25 7 10 15 15 16 21 12 12 6 14 35 25 22 30 26 25 24 22 15 16 20 25 27 29 28 24 24 26 26 22 20 13 10 13 6 9 10 11 13 15 15
15 10 8 11 12 10 9 9 13 20 6 6 16 30 15 11 16 20 21 18 11 17 23 22 23 28 25 27 28 28 27 26 22 18 18 15 13 11 8 13 13 9 11 12
12 13 11 7 8 7 14 13 16 12 12 15 5 20 47 6 18 23 23 17 22 18 17 21 24 23 27 27 25 26 26 26 21 20 18 26 19 17 7 11 10 14 15 15
8 5 7 12 14 8 19 10 13 10 15 13 28 9 30 6 14 12 11 15 21 20 17 24 28 29 21 18 22 23 25 24 22 20 19 19 16 11 14 13 18 15 13 14
13 3 4 10 13 13 15 12 10 11 9 22 46 18 32 30 15 2 12 15 20 24 17 17 17 19 22 21 22 24 26 23 22 20 19 18 21 19 19 15 16 16 13 13
11 12 6 7 16 3 7 4 8 7 8 21 14 14 31 28 21 14 20 19 20 19 14 16 23 24 22 26 27 25 23 20 20 20 19 17 19 20 22 21 17 19 17 13
11 34 2 12 7 8 9 9 8 13 27 30 27 15 16 10 12 4 9 13 10 9 7 15 19 22 24 26 25 24 24 22 21 23 21 17 18 15 14 15 16 15 15 16
10 18 15 16 8 9 6 12 9 18 25 25 29 30 25 33 30 18 14 10 13 11 5 5 8 10 14 20 21 24 25 21 22 24 22 20 19 18 16 15 14 15 15 14
9 15 2 7 13 11 16 7 12 8 15 28 19 25 24 9 8 7 9 9 10 7 3 5 10 12 15 17 15 15 14 17 23 21 19 20 23 21 19 16 18 18 15 15
9 7 22 18 2 8 18 17 16 20 19 21 28 12 6 10 14 10 4 5 10 11 5 3 7 14 15 14 16 17 20 17 17 16 18 19 18 20 20 21 18 17 16 17
13 7 21 36 31 20 18 24 20 15 19 26 32 33 18 27 30 16 7 1 5 2 8 10 11 12 15 18 20 21 21 26 27 22 20 19 19 20 20 20 20 20 17 15
10 4 14 18 18 5 6 9 26 29 27 27 25 11 8 8 9 11 6 10 19 16 13 7 8 12 14 13 12 16 18 17 20 22 22 20 21 20 20 21 20 18 18 17
14 12 19 28 30 28 31 28 31 29 28 37 38 42 35 30 25 19 20 26 21 20 20 16 12 13 19 18 13 16 16 17 17 20 22 24 23 22 22 22 21 21 19 20
7 19 20 24 25 30 33 35 36 39 38 38 43 42 40 33 26 33 27 25 18 20 21 18 18 15 17 20 21 18 14 20 21 21 20 21 22 20 22 21 21 19 17 16
8 23 22 26 28 31 33 34 37 37 42 43 40 45 37 33 28 24 25 26 20 24 19 15 17 14 18 18 20 19 16 19 21 23 23 22 22 21 22 21 20 19 16 15
18 18 25 33 24 24 30 36 33 27 31 30 31 31 27 26 19 18 18 17 18 10 14 19 11 11 16 23 25 27 25 23 24 22 22 24 24 23 21 22 20 19 18 14
21 26 21 29 18 33 23 16 18 17 27 20 21 24 27 22 17 7 8 7 7 12 7 3 5 7 15 21 24 20 27 26 25 24 24 23 25 24 21 23 23 21 19 20
8 17 11 16 23 31 26 14 12 5 20 16 19 17 13 3 3 4 4 6 3 5 9 7 5 5 8 16 21 25 24 25 26 27 27 26 27 27 25 23 22 19 19 18
15 10 9 11 13 11 5 23 31 15 20 18 14 18 9 6 4 4 4 2 3 4 6 10 10 11 1 8 19 23 23 23 24 25 26 26 26 26 25 23 22 18 17 18
19 10 10 13 8 12 11 30 24 6 4 18 15 13 1 2 4 6 2 3 4 5 8 6 6 9 8 10 14 17 19 21 20 22 23 24 23 22 21 20 19 19 19 18
8 9 6 8 5 10 22 34 13 21 22 20 19 11 12 15 11 4 6 5 6 8 8 4 2 3 3 12 16 16 18 17 21 23 23 22 23 22 22 22 17 18 18 19
7 3 7 6 12 34 39 31 29 25 21 22 17 21 14 14 13 10 11 8 9 8 8 4 1 5 7 11 14 18 19 23 24 24 24 24 24 22 23 23 22 19 19 19
6 6 11 17 8 22 30 36 22 18 23 27 19 21 14 18 17 14 13 14 11 8 7 2 5 6 7 8 11 11 19 21 23 24 23 23 23 22 21 18 20 20 20 18
14 15 14 20 25 25 22 22 28 33 33 25 23 18 20 14 19 13 14 17 15 11 10 6 9 9 10 11 12 16 19 22 22 22 21 21 20 21 20 18 20 20 18 21
10 9 7 18 21 19 30 35 34 29 26 27 23 23 23 13 18 17 17 15 13 13 12 10 10 11 13 14 16 17 20 22 23 22 20 19 20 19 18 18 16 14 19 20
Wind_Direction
243 248 248 243 222 244 267 271 278 276 281 285 278 281 283 287 291 283 275 263 240 224 233 196 191 183 183 182 178 171 160 160 153 153 146 144 150 146 136 130 133 132 136 139
218 243 257 235 239 252 262 273 280 289 271 236 291 284 275 265 272 275 276 268 249 233 219 198 190 188 187 184 181 170 166 162 163 161 157 140 145 130 133 131 135 141 140 143
210 228 104 197 267 241 240 243 266 277 296 248 277 289 287 254 251 266 260 260 254 235 222 202 194 197 188 185 181 175 167 164 163 158 128 118 112 118 134 145 135 132 130 132
227 248 250 239 219 229 276 235 262 273 315 299 142 293 299 309 253 245 257 258 268 263 225 205 203 195 191 191 181 175 166 167 164 158 159 162 167 163 160 158 145 140 139 136
240 254 275 280 264 240 272 235 246 259 280 306 283 227 271 330 279 270 260 258 274 272 243 216 204 202 196 178 174 171 166 168 162 166 165 163 154 145 143 142 139 135 135 135
256 285 248 252 261 243 272 283 263 257 241 262 264 207 272 273 277 295 258 259 267 280 260 224 202 186 180 168 167 167 168 168 162 161 163 165 155 150 148 152 146 143 137 135
300 264 236 268 289 252 259 279 291 276 224 252 288 222 237 271 298 283 296 287 279 290 272 210 190 184 176 173 170 168 169 164 163 158 158 158 158 160 163 159 158 149 147 145
292 296 104 2 38 318 303 254 243 271 277 284 290 260 255 276 308 336 340 325 328 329 311 219 201 183 176 174 172 167 167 160 160 159 162 159 153 162 163 162 159 152 155 151
323 270 328 342 8 15 346 288 292 284 275 273 265 277 278 275 276 300 335 358 340 330 329 195 176 179 172 173 172 170 166 163 167 169 161 160 156 157 164 158 148 149 143 143
34 302 49 338 331 281 224 309 294 255 275 266 259 258 260 321 313 321 347 19 19 359 350 157 160 164 174 178 176 156 156 175 170 168 169 167 165 160 155 156 158 147 144 138
340 227 284 321 327 331 304 283 272 284 266 272 279 263 267 301 286 250 238 48 61 67 56 259 189 179 176 170 155 149 155 168 179 173 170 169 164 158 153 157 147 145 147 146
295 261 274 280 296 287 273 273 267 259 276 261 264 269 268 265 265 247 205 236 300 297 147 147 177 182 175 181 181 180 194 189 185 175 172 166 150 150 155 150 145 144 150 140
343 274 296 295 291 293 338 333 308 300 296 284 289 284 340 312 266 241 215 267 278 270 251 196 152 171 188 213 199 187 186 183 167 156 154 152 157 154 150 148 140 141 139 139
285 265 260 274 283 296 291 292 288 286 283 282 273 281 287 273 264 265 265 272 266 248 232 228 208 186 169 197 215 216 180 165 161 155 159 159 157 157 153 148 142 145 145 148
299 266 270 279 279 281 276 276 279 277 275 275 278 279 269 263 257 262 268 274 251 230 230 226 231 211 182 181 210 210 187 166 162 159 159 161 151 148 143 145 143 141 150 150
249 280 284 270 274 271 276 276 266 271 273 269 268 270 265 275 279 261 258 264 245 234 221 233 227 212 190 184 185 178 174 175 169 166 158 151 143 143 145 145 143 140 137 143
277 269 276 280 280 304 282 262 260 260 269 265 264 264 275 286 277 272 276 271 244 225 216 235 224 233 202 185 199 197 187 169 167 158 155 153 147 147 150 140 136 135 143 139
269 272 270 273 295 275 270 263 258 275 277 273 265 264 268 267 280 242 254 243 227 235 137 227 286 309 298 197 188 186 168 171 164 157 158 153 150 147 148 146 148 153 148 141
237 272 261 253 259 274 290 322 341 296 299 304 273 277 279 225 191 258 263 333 18 9 356 353 341 317 300 186 171 164 167 165 164 166 163 160 158 151 154 156 152 149 146 142
328 245 258 294 284 283 24 348 337 297 300 4 322 293 246 187 199 289 234 287 358 354 328 327 330 331 297 169 153 158 163 167 174 169 163 161 154 158 162 152 150 148 147 148
324 315 295 291 288 271 20 342 330 255 332 332 333 342 249 336 309 301 202 275 316 317 325 339 336 329 317 159 154 160 160 172 164 159 155 152 153 155 147 143 143 149 149 147
285 311 321 319 286 279 347 338 350 310 300 306 317 315 316 305 313 288 278 285 304 305 315 342 345 357 149 155 153 157 164 158 148 145 148 149 146 144 140 139 148 150 149 153
267 219 290 252 263 293 298 289 288 293 314 314 296 305 293 295 290 283 276 268 267 270 296 324 164 135 155 170 164 162 157 147 146 147 150 146 141 143 144 149 151 152 159 158
277 286 268 305 281 284 291 293 287 308 322 318 299 285 286 280 283 281 277 271 257 258 274 243 176 173 162 163 150 161 153 150 147 150 147 147 144 146 149 151 158 162 163 161
267 290 270 274 283 301 287 306 317 319 321 320 322 314 313 292 274 269 280 276 271 262 253 221 200 192 165 157 144 152 154 151 148 146 147 148 146 146 151 158 163 167 173 168
242 236 265 283 291 293 292 301 305 308 311 312 310 304 299 285 279 283 277 270 268 259 241 235 209 185 168 155 147 157 154 150 146 143 146 147 149 151 152 154 156 166 162 173